(°C)
23°
21°
20°
20°
19°
18°
18°
(°C)
25°
24°
23°
22°
21°
21°
20°
დსდ
დას.
დჩდ
დჩდ
დჩდ
დას.
დსდ
(კმ/სთ)
7-12
5-9
3-7
2-6
2-5
1-4
1-4
(მმ)
0
0
0
0
0
0
0
(%)
0
0
0
0
0
0
0

მზის სიმაღლე

/ 5.7°
sun-icon
UV 3
07:05
17:35
მთვარის ბოლო მეოთხედი (31°)
09:44
20:10

METAR ტამპა (KTPF)-თვის

დრო პირობები ტემპერატურა/
ნამი
ქარი ხილვადობა ამინდი ღრუბლები წნევა ცვლილება დაუმუშავებელი
VFR 24°C / 19°C 230º 3kt >10km - Clear - KTPF 062135Z AUTO 23003KT 10SM CLR 24/19 A3006 RMK AO2
VFR 25°C / 19°C >10km - Clear - KTPF 062115Z AUTO 10SM CLR 25/19 A3006 RMK AO2
VFR 25°C / 19°C 230º 5kt >10km - Clear - KTPF 062055Z AUTO 23005KT 10SM CLR 25/19 A3006 RMK AO2
VFR 25°C / 19°C 230º 5kt >10km - Clear - KTPF 062035Z AUTO 23005KT 10SM CLR 25/19 A3006 RMK AO2
VFR 26°C / 20°C 220º 7kt >10km - Clear - KTPF 062015Z AUTO 22007KT 10SM CLR 26/20 A3006 RMK AO2
VFR 26°C / 20°C 200º 6kt >10km - Clear - KTPF 061955Z AUTO 20006KT 10SM CLR 26/20 A3006 RMK AO2
VFR 27°C / 20°C 210º 7kt >10km - Clear - KTPF 061935Z AUTO 21007KT 10SM CLR 27/20 A3006 RMK AO2
VFR 27°C / 20°C 210º 8kt >10km - Clear - KTPF 061915Z AUTO 21008KT 10SM CLR 27/20 A3007 RMK AO2
VFR 27°C / 20°C 220º 6kt >10km - Clear - KTPF 061855Z AUTO 22006KT 10SM CLR 27/20 A3008 RMK AO2
VFR 27°C / 20°C 210º 6kt >10km - Clear - KTPF 061835Z AUTO 21006KT 10SM CLR 27/20 A3008 RMK AO2
VFR 27°C / 20°C 210º 4kt >10km - Clear - KTPF 061815Z AUTO 21004KT 10SM CLR 27/20 A3009 RMK AO2
VFR 27°C / 21°C 190º 5kt >10km - Clear - KTPF 061755Z AUTO 19005KT 10SM CLR 27/21 A3009 RMK AO2
VFR 26°C / 21°C 220º 4kt >10km - Clear - KTPF 061735Z AUTO 22004KT 10SM CLR 26/21 A3010 RMK AO2
VFR 25°C / 21°C 240º 4kt >10km - Clear - KTPF 061715Z AUTO 24004KT 10SM CLR 25/21 A3011 RMK AO2
VFR 25°C / 21°C 240º 4kt >10km - Scattered Clouds 11000ft - KTPF 061655Z AUTO 24004KT 10SM SCT110 25/21 A3012 RMK AO2
VFR 23°C / 22°C 230º 3kt >10km - Scattered Clouds 200ft
Scattered Clouds 1900ft
Scattered Clouds 3500ft
- KTPF 061635Z AUTO 23003KT 7SM SCT002 SCT019 SCT035 23/22 A3013 RMK AO2
LIFR 22°C / 22°C variable 0kt 400m Fog Vertical Visibility of 0ft. - KTPF 061615Z AUTO 00000KT 1/4SM FG OVC002 22/22 A3014 RMK AO2
LIFR 21°C / 21°C variable 0kt 800m Fog Vertical Visibility of 0ft. - KTPF 061555Z AUTO 00000KT 1/2SM FG OVC002 21/21 A3015 RMK AO2
LIFR 21°C / 21°C 210º 4kt 400m Fog Vertical Visibility of 0ft. - KTPF 061535Z AUTO 21004KT 1/4SM FG OVC002 21/21 A3016 RMK AO2
LIFR 21°C / 21°C variable 0kt 400m Fog Vertical Visibility of 0ft. - KTPF 061515Z AUTO 00000KT 1/4SM FG OVC002 21/21 A3016 RMK AO2
LIFR 20°C / 20°C 180º 4kt 800m Fog Vertical Visibility of 0ft. - KTPF 061455Z AUTO 18004KT 1/2SM FG OVC002 20/20 A3016 RMK AO2
LIFR 20°C / 20°C 180º 3kt 1200m Mist Vertical Visibility of 0ft. - KTPF 061435Z AUTO 18003KT 3/4SM BR OVC002 20/20 A3016 RMK AO2
LIFR 20°C / 20°C 180º 4kt 800m Fog Vertical Visibility of 0ft. - KTPF 061415Z AUTO 18004KT 1/2SM FG OVC002 20/20 A3016 RMK AO2
LIFR 20°C / 20°C variable 0kt 400m Fog Vertical Visibility of 0ft. - KTPF 061355Z AUTO 00000KT 1/4SM FG OVC002 20/20 A3015 RMK AO2

VFR

24°C / 19°C

[მეტი]
ქარი 230º 3kt
ხილვადობა >10km
ამინდი -
ღრუბლები Clear
წნევა
ცვლილება -
დაუმუშავებელი KTPF 062135Z AUTO 23003KT 10SM CLR 24/19 A3006 RMK AO2

VFR

25°C / 19°C

[მეტი]
ქარი
ხილვადობა >10km
ამინდი -
ღრუბლები Clear
წნევა
ცვლილება -
დაუმუშავებელი KTPF 062115Z AUTO 10SM CLR 25/19 A3006 RMK AO2

VFR

25°C / 19°C

[მეტი]
ქარი 230º 5kt
ხილვადობა >10km
ამინდი -
ღრუბლები Clear
წნევა
ცვლილება -
დაუმუშავებელი KTPF 062055Z AUTO 23005KT 10SM CLR 25/19 A3006 RMK AO2

VFR

25°C / 19°C

[მეტი]
ქარი 230º 5kt
ხილვადობა >10km
ამინდი -
ღრუბლები Clear
წნევა
ცვლილება -
დაუმუშავებელი KTPF 062035Z AUTO 23005KT 10SM CLR 25/19 A3006 RMK AO2

VFR

26°C / 20°C

[მეტი]
ქარი 220º 7kt
ხილვადობა >10km
ამინდი -
ღრუბლები Clear
წნევა
ცვლილება -
დაუმუშავებელი KTPF 062015Z AUTO 22007KT 10SM CLR 26/20 A3006 RMK AO2

VFR

26°C / 20°C

[მეტი]
ქარი 200º 6kt
ხილვადობა >10km
ამინდი -
ღრუბლები Clear
წნევა
ცვლილება -
დაუმუშავებელი KTPF 061955Z AUTO 20006KT 10SM CLR 26/20 A3006 RMK AO2

VFR

27°C / 20°C

[მეტი]
ქარი 210º 7kt
ხილვადობა >10km
ამინდი -
ღრუბლები Clear
წნევა
ცვლილება -
დაუმუშავებელი KTPF 061935Z AUTO 21007KT 10SM CLR 27/20 A3006 RMK AO2

VFR

27°C / 20°C

[მეტი]
ქარი 210º 8kt
ხილვადობა >10km
ამინდი -
ღრუბლები Clear
წნევა
ცვლილება -
დაუმუშავებელი KTPF 061915Z AUTO 21008KT 10SM CLR 27/20 A3007 RMK AO2

VFR

27°C / 20°C

[მეტი]
ქარი 220º 6kt
ხილვადობა >10km
ამინდი -
ღრუბლები Clear
წნევა
ცვლილება -
დაუმუშავებელი KTPF 061855Z AUTO 22006KT 10SM CLR 27/20 A3008 RMK AO2

VFR

27°C / 20°C

[მეტი]
ქარი 210º 6kt
ხილვადობა >10km
ამინდი -
ღრუბლები Clear
წნევა
ცვლილება -
დაუმუშავებელი KTPF 061835Z AUTO 21006KT 10SM CLR 27/20 A3008 RMK AO2

VFR

27°C / 20°C

[მეტი]
ქარი 210º 4kt
ხილვადობა >10km
ამინდი -
ღრუბლები Clear
წნევა
ცვლილება -
დაუმუშავებელი KTPF 061815Z AUTO 21004KT 10SM CLR 27/20 A3009 RMK AO2

VFR

27°C / 21°C

[მეტი]
ქარი 190º 5kt
ხილვადობა >10km
ამინდი -
ღრუბლები Clear
წნევა
ცვლილება -
დაუმუშავებელი KTPF 061755Z AUTO 19005KT 10SM CLR 27/21 A3009 RMK AO2

VFR

26°C / 21°C

[მეტი]
ქარი 220º 4kt
ხილვადობა >10km
ამინდი -
ღრუბლები Clear
წნევა
ცვლილება -
დაუმუშავებელი KTPF 061735Z AUTO 22004KT 10SM CLR 26/21 A3010 RMK AO2

VFR

25°C / 21°C

[მეტი]
ქარი 240º 4kt
ხილვადობა >10km
ამინდი -
ღრუბლები Clear
წნევა
ცვლილება -
დაუმუშავებელი KTPF 061715Z AUTO 24004KT 10SM CLR 25/21 A3011 RMK AO2

VFR

25°C / 21°C

[მეტი]
ქარი 240º 4kt
ხილვადობა >10km
ამინდი -
ღრუბლები Scattered Clouds 11000ft
წნევა
ცვლილება -
დაუმუშავებელი KTPF 061655Z AUTO 24004KT 10SM SCT110 25/21 A3012 RMK AO2

VFR

23°C / 22°C

[მეტი]
ქარი 230º 3kt
ხილვადობა >10km
ამინდი -
ღრუბლები Scattered Clouds 200ft
Scattered Clouds 1900ft
Scattered Clouds 3500ft
წნევა
ცვლილება -
დაუმუშავებელი KTPF 061635Z AUTO 23003KT 7SM SCT002 SCT019 SCT035 23/22 A3013 RMK AO2

LIFR

22°C / 22°C

[მეტი]
ქარი variable 0kt
ხილვადობა 400m
ამინდი Fog
ღრუბლები Vertical Visibility of 0ft.
წნევა
ცვლილება -
დაუმუშავებელი KTPF 061615Z AUTO 00000KT 1/4SM FG OVC002 22/22 A3014 RMK AO2

LIFR

21°C / 21°C

[მეტი]
ქარი variable 0kt
ხილვადობა 800m
ამინდი Fog
ღრუბლები Vertical Visibility of 0ft.
წნევა
ცვლილება -
დაუმუშავებელი KTPF 061555Z AUTO 00000KT 1/2SM FG OVC002 21/21 A3015 RMK AO2

LIFR

21°C / 21°C

[მეტი]
ქარი 210º 4kt
ხილვადობა 400m
ამინდი Fog
ღრუბლები Vertical Visibility of 0ft.
წნევა
ცვლილება -
დაუმუშავებელი KTPF 061535Z AUTO 21004KT 1/4SM FG OVC002 21/21 A3016 RMK AO2

LIFR

21°C / 21°C

[მეტი]
ქარი variable 0kt
ხილვადობა 400m
ამინდი Fog
ღრუბლები Vertical Visibility of 0ft.
წნევა
ცვლილება -
დაუმუშავებელი KTPF 061515Z AUTO 00000KT 1/4SM FG OVC002 21/21 A3016 RMK AO2

LIFR

20°C / 20°C

[მეტი]
ქარი 180º 4kt
ხილვადობა 800m
ამინდი Fog
ღრუბლები Vertical Visibility of 0ft.
წნევა
ცვლილება -
დაუმუშავებელი KTPF 061455Z AUTO 18004KT 1/2SM FG OVC002 20/20 A3016 RMK AO2

LIFR

20°C / 20°C

[მეტი]
ქარი 180º 3kt
ხილვადობა 1200m
ამინდი Mist
ღრუბლები Vertical Visibility of 0ft.
წნევა
ცვლილება -
დაუმუშავებელი KTPF 061435Z AUTO 18003KT 3/4SM BR OVC002 20/20 A3016 RMK AO2

LIFR

20°C / 20°C

[მეტი]
ქარი 180º 4kt
ხილვადობა 800m
ამინდი Fog
ღრუბლები Vertical Visibility of 0ft.
წნევა
ცვლილება -
დაუმუშავებელი KTPF 061415Z AUTO 18004KT 1/2SM FG OVC002 20/20 A3016 RMK AO2

LIFR

20°C / 20°C

[მეტი]
ქარი variable 0kt
ხილვადობა 400m
ამინდი Fog
ღრუბლები Vertical Visibility of 0ft.
წნევა
ცვლილება -
დაუმუშავებელი KTPF 061355Z AUTO 00000KT 1/4SM FG OVC002 20/20 A3015 RMK AO2

რადარის და ნალექების მაჩვენებელი ტამპა -თვის

გაწურეთ
Მსუბუქი
ზომიერი
Მძიმე
Ძალიან მძიმე
სეტყვა

მდებარეობის მარკერი მოთავსებულია ტამპა -ზე. ეს ანიმაცია აჩვენებს ნალექების სარადარო მონაცემებს როგორც ბოლო საათის განმავლობაში, ასევე 1h პროგნოზს. წვიმა ან თოვლის მსუბუქი ვარდნა შეიძლება უჩინარი იყოს რადარისთვის. ნალექების ინტენსივობა არის კოდირებული ფერით, დაწყებული ღია ლურჯიდან ნარინჯისფერამდე.

მიმდინარე სატელიტური სურათები ტამპა-თვის, ამერიკის შეერთებული შტატები

ლოკაციის მარკერი დაყენებყლია ტამპაზე. [მეტი]

რეალურ დროში სატელიტური სურათი აერთიანებს ხილულ სინათლეს დღისით ღამის განმავლობაში ინფრაწითელ გამოსხივებასთან ერთად. ღამით, სურათი არ არის მუქი, რადგან ინფრაწითელ გამოსხივებას შეუძლია ტემპერატურის განსხვავებების დადგენა. სამწუხაროდ, დაბალი ღრუბლები და ნისლი ძნელია განასხვავონ მიწის ტემპერატურისგან და, შესაბამისად, ისინი შეიძლება თითქმის არ ჩანდეს ღამით. Meteosat სატელიტური გამოსახულება ევროპისთვის ახლდება რეალურ დროში ყოველ 5 წუთში. GOES-16/GOES-17 (ჩრდილოეთი და სამხრეთ ამერიკა) და ჰიმავარი (აზია) გამოსახულებები ახლდება ყოველ 10 წუთში.